Lid_Strength_Index
6 6 8 7 7 8 9 11 13 9 8 9 10 11 9 8 7 7 7 6 5 4 3 2 2 1 1 1 1 1 1 0 0 0 0 1 1 0 -0 -1 -0 -3 -3 -2
6 8 6 5 6 8 9 11 13 9 8 9 10 11 9 8 8 7 6 6 5 5 4 3 2 2 2 1 1 1 1 0 0 0 -0 -0 -0 -0 -0 -1 -2 -2 -3 -2
7 6 5 6 7 8 7 10 11 11 8 8 10 13 11 9 7 6 6 5 5 5 5 4 3 2 2 2 1 1 1 0 -0 -0 0 -0 0 0 1 -0 -0 -1 -2 -2
6 5 6 6 7 6 8 7 8 9 9 14 8 16 12 10 10 8 6 6 6 5 5 3 3 2 2 2 1 1 1 0 0 -1 -1 1 1 2 1 1 0 -0 -2 -2
7 6 7 7 7 6 7 6 7 8 9 9 10 12 12 10 11 9 7 6 5 5 4 4 4 2 2 1 1 1 1 1 0 -0 -0 0 1 1 -0 0 1 -1 -1 -2
6 4 5 6 5 5 5 6 7 8 9 13 10 11 14 12 11 9 7 6 5 5 4 4 3 2 2 1 1 1 1 1 0 0 0 1 1 1 1 1 1 0 0 -0
7 6 5 5 7 5 6 8 12 14 15 17 10 11 12 10 8 7 8 7 5 4 4 4 4 3 3 2 2 2 1 2 1 0 0 0 -0 0 1 1 1 1 1 1
9 10 7 5 6 7 7 8 11 19 19 18 11 14 11 6 6 6 6 5 5 4 4 4 3 3 3 2 2 1 2 2 1 1 1 -0 -0 1 1 1 0 0 1 1
9 9 6 5 5 6 8 9 7 10 12 14 12 11 8 6 7 6 6 5 5 5 4 4 3 3 3 3 2 2 2 1 1 1 1 0 0 0 0 0 -1 -0 -1 0
7 10 6 6 5 5 6 6 11 10 18 18 15 14 16 11 9 8 7 7 6 4 4 4 3 3 3 2 2 1 1 1 1 1 1 1 0 0 -0 -0 -0 -0 -1 -0
6 7 8 6 7 8 7 8 8 9 13 16 17 16 9 11 9 8 7 6 6 5 4 3 3 3 2 2 2 1 2 1 1 1 1 1 1 0 0 0 -0 -0 -1 -1
5 7 10 8 6 5 6 7 7 11 17 14 13 14 8 8 8 6 6 5 4 5 5 3 3 3 3 2 2 2 2 2 1 1 1 1 1 0 1 0 0 -0 0 -1
6 8 10 9 7 6 8 7 7 8 9 15 16 13 7 7 7 6 6 5 5 5 4 4 4 3 3 3 2 2 2 1 1 1 1 1 1 1 1 1 0 -0 -0 -0
4 7 9 11 9 8 9 8 7 8 11 12 12 10 9 8 8 6 6 5 5 5 5 4 4 4 3 2 2 2 2 1 1 1 1 1 1 1 1 0 0 0 -0 0
5 8 7 7 7 7 8 8 8 9 9 12 11 11 9 9 9 6 6 5 5 5 5 5 4 4 3 3 2 2 2 1 1 1 1 1 1 0 0 0 -0 -0 -0 0
5 8 7 8 7 7 8 7 8 7 8 8 11 11 7 7 7 6 6 6 6 5 5 5 4 4 3 3 3 2 2 2 1 1 2 1 1 1 1 0 0 0 0 0
6 7 9 10 8 8 10 8 7 7 6 7 9 10 8 8 8 7 6 6 6 6 5 5 4 4 3 3 3 2 2 1 1 1 1 1 1 1 1 0 1 1 1 0
6 7 8 10 9 13 8 5 6 7 7 6 7 8 7 8 7 6 5 6 6 5 5 4 4 3 3 2 2 2 1 2 2 2 1 1 1 1 1 1 1 1 0 1
5 6 9 11 11 9 8 7 7 8 9 5 6 7 7 6 6 7 5 4 5 4 4 3 3 3 2 2 2 2 2 2 2 2 2 1 1 1 1 1 1 0 1 1
5 5 9 10 12 14 9 6 5 6 11 6 6 7 8 8 12 9 5 4 4 4 3 3 3 2 2 2 2 2 2 2 2 2 1 1 1 1 1 1 1 1 1 2
8 8 10 10 11 9 7 6 5 11 11 5 5 7 6 8 7 5 4 4 4 4 3 3 3 3 2 2 2 3 3 3 2 1 1 1 1 1 1 1 1 1 1 3
9 10 10 9 12 14 5 6 9 7 5 5 5 6 7 6 6 5 4 4 4 4 4 3 3 3 2 1 2 3 3 2 2 1 2 2 1 1 1 1 2 3 4 5
9 7 9 8 11 6 4 4 4 4 5 4 4 5 5 6 6 5 5 4 4 4 4 3 3 3 2 2 2 3 2 1 2 2 2 2 1 1 1 1 2 3 3 4
7 5 7 7 6 5 4 3 3 3 3 3 3 5 4 5 5 5 4 4 4 4 4 3 3 4 4 3 2 2 2 2 3 3 3 2 2 2 1 1 1 2 2 3
6 5 7 7 5 4 4 4 3 3 3 3 3 4 4 5 5 4 4 4 4 4 4 3 3 3 3 3 2 1 1 2 2 2 2 3 4 4 5 7 7 4 7 7
5 6 7 8 4 5 4 4 3 4 4 3 3 5 4 4 4 4 4 3 3 4 3 3 3 3 3 4 4 2 1 1 3 3 3 3 3 4 4 5 7 12 12 13